Location: Helion Bumpstead
(52.0500°N, 0.4000°E)
Time: 11:52:00
(UTC+00:00)

NOSS 3-1 (A) - Pass Details

Date: 15 November 2025
Orbit: 621 x 1586 km, 63.4° (Epoch: 02 December)

Event Time Altitude Azimuth Distance (km) Brightness Sun altitude
Exits shadow 03:37:47 41° 84° (E) 1,122 4.1 -33.6°
Drops below altitude 10° 03:42:05 10° 51° (NE) 2,554 6.4 -33.0°
Sets 03:44:57 0° 47° (NE) 3,654 7.3 -32.5°
